datetime,flow
1912-10-01,140.0
1912-10-02,140.0
1912-10-03,140.0
1912-10-04,140.0
1912-10-05,140.0
1912-10-06,140.0
1912-10-07,140.0
1912-10-08,140.0
1912-10-09,140.0
1912-10-10,140.0
1912-10-11,140.0
1912-10-12,140.0
1912-10-13,140.0
1912-10-14,140.0
1912-10-15,140.0
1912-10-16,140.0
1912-10-17,140.0
1912-10-18,140.0
1912-10-19,140.0
1912-10-20,140.0
1912-10-21,140.0
1912-10-22,140.0
1912-10-23,140.0
1912-10-24,140.0
1912-10-25,140.0
1912-10-26,140.0
1912-10-27,140.0
1912-10-28,140.0
1912-10-29,140.0
1912-10-30,140.0
1912-10-31,140.0
1912-11-01,100.0
1912-11-02,100.0
1912-11-03,100.0
1912-11-04,100.0
1912-11-05,100.0
1912-11-06,100.0
1912-11-07,100.0
1912-11-08,100.0
1912-11-09,100.0
1912-11-10,100.0
1912-11-11,100.0
1912-11-12,100.0
1912-11-13,100.0
1912-11-14,100.0
1912-11-15,100.0
1912-11-16,100.0
1912-11-17,100.0
1912-11-18,100.0
1912-11-19,100.0
1912-11-20,100.0
1912-11-21,100.0
1912-11-22,100.0
1912-11-23,100.0
1912-11-24,100.0
1912-11-25,100.0
1912-11-26,100.0
1912-11-27,100.0
1912-11-28,100.0
1912-11-29,100.0
1912-11-30,100.0
1912-12-01,90.0
1912-12-02,90.0
1912-12-03,90.0
1912-12-04,90.0
1912-12-05,90.0
1912-12-06,90.0
1912-12-07,90.0
1912-12-08,90.0
1912-12-09,90.0
1912-12-10,90.0
1912-12-11,90.0
1912-12-12,90.0
1912-12-13,90.0
1912-12-14,90.0
1912-12-15,90.0
1912-12-16,90.0
1912-12-17,90.0
1912-12-18,90.0
1912-12-19,90.0
1912-12-20,90.0
1912-12-21,90.0
1912-12-22,90.0
1912-12-23,90.0
1912-12-24,90.0
1912-12-25,90.0
1912-12-26,90.0
1912-12-27,90.0
1912-12-28,90.0
1912-12-29,90.0
1912-12-30,90.0
1912-12-31,90.0
1913-01-01,85.0
1913-01-02,85.0
1913-01-03,85.0
1913-01-04,85.0
1913-01-05,85.0
1913-01-06,85.0
1913-01-07,85.0
1913-01-08,85.0
1913-01-09,85.0
1913-01-10,85.0
1913-01-11,85.0
1913-01-12,85.0
1913-01-13,85.0
1913-01-14,85.0
1913-01-15,85.0
1913-01-16,85.0
1913-01-17,85.0
1913-01-18,85.0
1913-01-19,85.0
1913-01-20,85.0
1913-01-21,85.0
1913-01-22,85.0
1913-01-23,85.0
1913-01-24,85.0
1913-01-25,85.0
1913-01-26,85.0
1913-01-27,85.0
1913-01-28,85.0
1913-01-29,85.0
1913-01-30,85.0
1913-01-31,85.0
1913-02-01,75.0
1913-02-02,75.0
1913-02-03,75.0
1913-02-04,75.0
1913-02-05,75.0
1913-02-06,75.0
1913-02-07,75.0
1913-02-08,75.0
1913-02-09,75.0
1913-02-10,75.0
1913-02-11,75.0
1913-02-12,75.0
1913-02-13,75.0
1913-02-14,75.0
1913-02-15,75.0
1913-02-16,75.0
1913-02-17,75.0
1913-02-18,75.0
1913-02-19,75.0
1913-02-20,75.0
1913-02-21,75.0
1913-02-22,75.0
1913-02-23,75.0
1913-02-24,75.0
1913-02-25,75.0
1913-02-26,75.0
1913-02-27,75.0
1913-02-28,75.0
1913-03-01,90.0
1913-03-02,90.0
1913-03-03,90.0
1913-03-04,90.0
1913-03-05,90.0
1913-03-06,90.0
1913-03-07,90.0
1913-03-08,90.0
1913-03-09,90.0
1913-03-10,90.0
1913-03-11,90.0
1913-03-12,90.0
1913-03-13,90.0
1913-03-14,90.0
1913-03-15,90.0
1913-03-16,90.0
1913-03-17,90.0
1913-03-18,90.0
1913-03-19,90.0
1913-03-20,90.0
1913-03-21,90.0
1913-03-22,90.0
1913-03-23,90.0
1913-03-24,90.0
1913-03-25,90.0
1913-03-26,90.0
1913-03-27,90.0
1913-03-28,90.0
1913-03-29,90.0
1913-03-30,90.0
1913-03-31,90.0
1913-04-01,250.0
1913-04-02,250.0
1913-04-03,250.0
1913-04-04,250.0
1913-04-05,250.0
1913-04-06,250.0
1913-04-07,250.0
1913-04-08,250.0
1913-04-09,250.0
1913-04-10,250.0
1913-04-11,250.0
1913-04-12,250.0
1913-04-13,250.0
1913-04-14,250.0
1913-04-15,250.0
1913-04-16,250.0
1913-04-17,250.0
1913-04-18,250.0
1913-04-19,250.0
1913-04-20,250.0
1913-04-21,250.0
1913-04-22,250.0
1913-04-23,250.0
1913-04-24,250.0
1913-04-25,250.0
1913-04-26,250.0
1913-04-27,250.0
1913-04-28,250.0
1913-04-29,250.0
1913-04-30,250.0
1913-05-01,500.0
1913-05-02,412.0
1913-05-03,335.0
1913-05-04,335.0
1913-05-05,360.0
1913-05-06,440.0
1913-05-07,440.0
1913-05-08,440.0
1913-05-09,360.0
1913-05-10,470.0
1913-05-11,560.0
1913-05-12,590.0
1913-05-13,590.0
1913-05-14,440.0
1913-05-15,310.0
1913-05-16,262.0
1913-05-17,360.0
1913-05-18,440.0
1913-05-19,500.0
1913-05-20,360.0
1913-05-21,285.0
1913-05-22,262.0
1913-05-23,420.0
1913-05-24,580.0
1913-05-25,645.0
1913-05-26,780.0
1913-05-27,770.0
1913-05-28,610.0
1913-05-29,740.0
1913-05-30,772.0
1913-05-31,772.0
1913-06-01,870.0
1913-06-02,870.0
1913-06-03,805.0
1913-06-04,772.0
1913-06-05,772.0
1913-06-06,675.0
1913-06-07,610.0
1913-06-08,550.0
1913-06-09,490.0
1913-06-10,520.0
1913-06-11,520.0
1913-06-12,520.0
1913-06-13,415.0
1913-06-14,415.0
1913-06-15,520.0
1913-06-16,610.0
1913-06-17,708.0
1913-06-18,838.0
1913-06-19,772.0
1913-06-20,740.0
1913-06-21,675.0
1913-06-22,610.0
1913-06-23,550.0
1913-06-24,550.0
1913-06-25,490.0
1913-06-26,520.0
1913-06-27,520.0
1913-06-28,520.0
1913-06-29,520.0
1913-06-30,440.0
1913-07-01,390.0
1913-07-02,370.0
1913-07-03,350.0
1913-07-04,310.0
1913-07-05,310.0
1913-07-06,295.0
1913-07-07,280.0
1913-07-08,265.0
1913-07-09,250.0
1913-07-10,265.0
1913-07-11,250.0
1913-07-12,235.0
1913-07-13,220.0
1913-07-14,208.0
1913-07-15,220.0
1913-07-16,295.0
1913-07-17,440.0
1913-07-18,330.0
1913-07-19,310.0
1913-07-20,370.0
1913-07-21,370.0
1913-07-22,580.0
1913-07-23,490.0
1913-07-24,390.0
1913-07-25,330.0
1913-07-26,295.0
1913-07-27,265.0
1913-07-28,235.0
1913-07-29,208.0
1913-07-30,182.0
1913-07-31,150.0
1913-08-01,135.0
1913-08-02,121.0
1913-08-03,115.0
1913-08-04,102.0
1913-08-05,93.0
1913-08-06,98.0
1913-08-07,93.0
1913-08-08,72.0
1913-08-09,63.0
1913-08-10,98.0
1913-08-11,109.0
1913-08-12,150.0
1913-08-13,152.0
1913-08-14,135.0
1913-08-15,105.0
1913-08-16,93.0
1913-08-17,87.0
1913-08-18,82.0
1913-08-19,82.0
1913-08-20,75.0
1913-08-21,78.0
1913-08-22,102.0
1913-08-23,90.0
1913-08-24,208.0
1913-08-25,141.0
1913-08-26,115.0
1913-08-27,102.0
1913-08-28,105.0
1913-08-29,105.0
1913-08-30,125.0
1913-08-31,165.0
1913-09-01,125.0
1913-09-02,135.0
1913-09-03,125.0
1913-09-04,145.0
1913-09-05,235.0
1913-09-06,330.0
1913-09-07,310.0
1913-09-08,370.0
1913-09-09,390.0
1913-09-10,330.0
1913-09-11,280.0
1913-09-12,250.0
1913-09-13,220.0
1913-09-14,220.0
1913-09-15,195.0
1913-09-16,182.0
1913-09-17,158.0
1913-09-18,158.0
1913-09-19,145.0
1913-09-20,135.0
1913-09-21,135.0
1913-09-22,158.0
1913-09-23,220.0
1913-09-24,208.0
1913-09-25,195.0
1913-09-26,182.0
1913-09-27,182.0
1913-09-28,182.0
1913-09-29,182.0
1913-09-30,170.0
1913-10-01,175.0
1913-10-02,170.0
1913-10-03,195.0
1913-10-04,190.0
1913-10-05,182.0
1913-10-06,182.0
1913-10-07,165.0
1913-10-08,165.0
1913-10-09,165.0
1913-10-10,158.0
1913-10-11,150.0
1913-10-12,158.0
1913-10-13,158.0
1913-10-14,145.0
1913-10-15,141.0
1913-10-16,129.0
1913-10-17,115.0
1913-10-18,115.0
1913-10-19,115.0
1913-10-20,115.0
1913-10-21,105.0
1913-10-22,115.0
1913-10-23,125.0
1913-10-24,129.0
1913-10-25,125.0
1913-10-26,109.0
1913-10-27,105.0
1913-10-28,125.0
1913-10-29,121.0
1913-10-30,115.0
1913-10-31,115.0
1913-11-01,109.0
1913-11-02,109.0
1913-11-03,121.0
1913-11-04,121.0
1913-11-05,121.0
1913-11-06,109.0
1913-11-07,115.0
1913-11-08,109.0
1913-11-09,109.0
1913-11-10,105.0
1913-11-11,109.0
1913-11-12,109.0
1913-11-13,102.0
1913-11-14,105.0
1913-11-15,105.0
1913-11-16,98.0
1913-11-17,105.0
1913-11-18,105.0
1913-11-19,105.0
1913-11-20,115.0
1913-11-21,109.0
1913-11-22,105.0
1913-11-23,93.0
1913-11-24,98.0
1913-11-25,109.0
1913-11-26,109.0
1913-11-27,105.0
1913-11-28,109.0
1913-11-29,105.0
1913-11-30,102.0
1913-12-01,100.0
1913-12-02,100.0
1913-12-03,100.0
1913-12-04,100.0
1913-12-05,100.0
1913-12-06,100.0
1913-12-07,100.0
1913-12-08,100.0
1913-12-09,100.0
1913-12-10,100.0
1913-12-11,100.0
1913-12-12,100.0
1913-12-13,100.0
1913-12-14,100.0
1913-12-15,100.0
1913-12-16,100.0
1913-12-17,100.0
1913-12-18,100.0
1913-12-19,100.0
1913-12-20,100.0
1913-12-21,100.0
1913-12-22,100.0
1913-12-23,100.0
1913-12-24,100.0
1913-12-25,100.0
1913-12-26,100.0
1913-12-27,100.0
1913-12-28,100.0
1913-12-29,100.0
1913-12-30,100.0
1913-12-31,100.0
1914-01-01,90.0
1914-01-02,90.0
1914-01-03,90.0
1914-01-04,90.0
1914-01-05,90.0
1914-01-06,90.0
1914-01-07,90.0
1914-01-08,90.0
1914-01-09,90.0
1914-01-10,90.0
1914-01-11,90.0
1914-01-12,90.0
1914-01-13,90.0
1914-01-14,90.0
1914-01-15,90.0
1914-01-16,90.0
1914-01-17,90.0
1914-01-18,90.0
1914-01-19,90.0
1914-01-20,90.0
1914-01-21,90.0
1914-01-22,90.0
1914-01-23,90.0
1914-01-24,90.0
1914-01-25,90.0
1914-01-26,90.0
1914-01-27,90.0
1914-01-28,90.0
1914-01-29,90.0
1914-01-30,90.0
1914-01-31,90.0
1914-02-01,80.0
1914-02-02,80.0
1914-02-03,80.0
1914-02-04,80.0
1914-02-05,80.0
1914-02-06,80.0
1914-02-07,80.0
1914-02-08,80.0
1914-02-09,80.0
1914-02-10,80.0
1914-02-11,80.0
1914-02-12,80.0
1914-02-13,80.0
1914-02-14,80.0
1914-02-15,80.0
1914-02-16,80.0
1914-02-17,80.0
1914-02-18,80.0
1914-02-19,80.0
1914-02-20,80.0
1914-02-21,80.0
1914-02-22,80.0
1914-02-23,80.0
1914-02-24,80.0
1914-02-25,80.0
1914-02-26,80.0
1914-02-27,80.0
1914-02-28,80.0
1914-03-01,130.0
1914-03-02,130.0
1914-03-03,130.0
1914-03-04,130.0
1914-03-05,130.0
1914-03-06,130.0
1914-03-07,130.0
1914-03-08,130.0
1914-03-09,130.0
1914-03-10,130.0
1914-03-11,130.0
1914-03-12,130.0
1914-03-13,130.0
1914-03-14,130.0
1914-03-15,130.0
1914-03-16,130.0
1914-03-17,130.0
1914-03-18,130.0
1914-03-19,130.0
1914-03-20,130.0
1914-03-21,130.0
1914-03-22,130.0
1914-03-23,130.0
1914-03-24,130.0
1914-03-25,130.0
1914-03-26,130.0
1914-03-27,130.0
1914-03-28,130.0
1914-03-29,130.0
1914-03-30,130.0
1914-03-31,130.0
1914-04-01,78.0
1914-04-02,105.0
1914-04-03,145.0
1914-04-04,174.0
1914-04-05,235.0
1914-04-06,260.0
1914-04-07,220.0
1914-04-08,165.0
1914-04-09,174.0
1914-04-10,165.0
1914-04-11,235.0
1914-04-12,165.0
1914-04-13,188.0
1914-04-14,220.0
1914-04-15,285.0
1914-04-16,395.0
1914-04-17,285.0
1914-04-18,270.0
1914-04-19,235.0
1914-04-20,338.0
1914-04-21,425.0
1914-04-22,439.0
1914-04-23,510.0
1914-04-24,354.0
1914-04-25,395.0
1914-04-26,460.0
1914-04-27,425.0
1914-04-28,338.0
1914-04-29,338.0
1914-04-30,425.0
1914-05-01,338.0
1914-05-02,310.0
1914-05-03,285.0
1914-05-04,481.0
1914-05-05,510.0
1914-05-06,555.0
1914-05-07,610.0
1914-05-08,695.0
1914-05-09,910.0
1914-05-10,980.0
1914-05-11,930.0
1914-05-12,880.0
1914-05-13,980.0
1914-05-14,910.0
1914-05-15,1000.0
1914-05-16,1040.0
1914-05-17,1110.0
1914-05-18,1160.0
1914-05-19,1260.0
1914-05-20,1340.0
1914-05-21,1680.0
1914-05-22,1860.0
1914-05-23,2570.0
1914-05-24,1470.0
1914-05-25,1060.0
1914-05-26,1020.0
1914-05-27,1070.0
1914-05-28,690.0
1914-05-29,840.0
1914-05-30,1360.0
1914-05-31,1820.0
1914-06-01,2290.0
1914-06-02,2720.0
1914-06-03,1700.0
1914-06-04,1640.0
1914-06-05,1470.0
1914-06-06,1220.0
1914-06-07,1010.0
1914-06-08,750.0
1914-06-09,630.0
1914-06-10,810.0
1914-06-11,1430.0
1914-06-12,1420.0
1914-06-13,1770.0
1914-06-14,1880.0
1914-06-15,2080.0
1914-06-16,1520.0
1914-06-17,1540.0
1914-06-18,1450.0
1914-06-19,1480.0
1914-06-20,1560.0
1914-06-21,1660.0
1914-06-22,2070.0
1914-06-23,1920.0
1914-06-24,1560.0
1914-06-25,1530.0
1914-06-26,1500.0
1914-06-27,1270.0
1914-06-28,1210.0
1914-06-29,1190.0
1914-06-30,1190.0
1914-07-01,960.0
1914-07-02,940.0
1914-07-03,890.0
1914-07-04,1000.0
1914-07-05,920.0
1914-07-06,940.0
1914-07-07,915.0
1914-07-08,803.0
1914-07-09,708.0
1914-07-10,708.0
1914-07-11,657.0
1914-07-12,708.0
1914-07-13,968.0
1914-07-14,915.0
1914-07-15,797.0
1914-07-16,682.0
1914-07-17,657.0
1914-07-18,968.0
1914-07-19,1040.0
1914-07-20,835.0
1914-07-21,797.0
1914-07-22,708.0
1914-07-23,657.0
1914-07-24,624.0
1914-07-25,600.0
1914-07-26,600.0
1914-07-27,572.0
1914-07-28,624.0
1914-07-29,600.0
1914-07-30,624.0
1914-07-31,640.0
1914-08-01,624.0
1914-08-02,522.0
1914-08-03,471.0
1914-08-04,403.0
1914-08-05,328.0
1914-08-06,328.0
1914-08-07,300.0
1914-08-08,415.0
1914-08-09,385.0
1914-08-10,344.0
1914-08-11,311.0
1914-08-12,275.0
1914-08-13,250.0
1914-08-14,210.0
1914-08-15,178.0
1914-08-16,164.0
1914-08-17,155.0
1914-08-18,123.0
1914-08-19,115.0
1914-08-20,115.0
1914-08-21,147.0
1914-08-22,422.0
1914-08-23,385.0
1914-08-24,250.0
1914-08-25,240.0
1914-08-26,260.0
1914-08-27,429.0
1914-08-28,344.0
1914-08-29,300.0
1914-08-30,300.0
1914-08-31,275.0
1914-09-01,260.0
1914-09-02,250.0
1914-09-03,225.0
1914-09-04,225.0
1914-09-05,200.0
1914-09-06,191.0
1914-09-07,164.0
1914-09-08,155.0
1914-09-09,147.0
1914-09-10,135.0
1914-09-11,123.0
1914-09-12,115.0
1914-09-13,135.0
1914-09-14,135.0
1914-09-15,115.0
1914-09-16,115.0
1914-09-17,115.0
1914-09-18,107.0
1914-09-19,91.0
1914-09-20,75.0
1914-09-21,75.0
1914-09-22,60.0
1914-09-23,60.0
1914-09-24,60.0
1914-09-25,60.0
1914-09-26,51.0
1914-09-27,45.0
1914-09-28,45.0
1914-09-29,45.0
1914-09-30,45.0
1914-10-01,45.0
1914-10-02,45.0
1914-10-03,60.0
1914-10-04,240.0
1914-10-05,107.0
1914-10-06,107.0
1914-10-07,107.0
1914-10-08,95.0
1914-10-09,123.0
1914-10-10,123.0
1914-10-11,115.0
1914-10-12,115.0
1914-10-13,95.0
1914-10-14,83.0
1914-10-15,83.0
1914-10-16,75.0
1914-10-17,75.0
1914-10-18,75.0
1914-10-19,75.0
1914-10-20,75.0
1914-10-21,75.0
1914-10-22,135.0
1914-10-23,178.0
1914-10-24,164.0
1914-10-25,164.0
1914-10-26,147.0
1914-10-27,135.0
1914-10-28,115.0
1914-10-29,115.0
1914-10-30,115.0
1914-10-31,115.0
1914-11-01,107.0
1914-11-02,95.0
1914-11-03,95.0
1914-11-04,95.0
1914-11-05,83.0
1914-11-06,75.0
1914-11-07,75.0
1914-11-08,75.0
1914-11-09,75.0
1914-11-10,69.0
1914-11-11,60.0
1914-11-12,60.0
1914-11-13,60.0
1914-11-14,75.0
1914-11-15,51.0
1914-11-16,45.0
1914-11-17,60.0
1914-11-18,51.0
1914-11-19,45.0
1914-11-20,45.0
1914-11-21,39.0
1914-11-22,39.0
1914-11-23,45.0
1914-11-24,30.0
1914-11-25,51.0
1914-11-26,45.0
1914-11-27,45.0
1914-11-28,45.0
1914-11-29,51.0
1914-11-30,45.0
1914-12-01,40.0
1914-12-02,40.0
1914-12-03,40.0
1914-12-04,40.0
1914-12-05,40.0
1914-12-06,40.0
1914-12-07,40.0
1914-12-08,40.0
1914-12-09,40.0
1914-12-10,40.0
1914-12-11,40.0
1914-12-12,40.0
1914-12-13,40.0
1914-12-14,40.0
1914-12-15,40.0
1914-12-16,40.0
1914-12-17,40.0
1914-12-18,40.0
1914-12-19,40.0
1914-12-20,40.0
1914-12-21,40.0
1914-12-22,40.0
1914-12-23,40.0
1914-12-24,40.0
1914-12-25,40.0
1914-12-26,40.0
1914-12-27,40.0
1914-12-28,40.0
1914-12-29,40.0
1914-12-30,40.0
1914-12-31,40.0
1915-01-01,40.0
1915-01-02,40.0
1915-01-03,40.0
1915-01-04,40.0
1915-01-05,40.0
1915-01-06,40.0
1915-01-07,40.0
1915-01-08,40.0
1915-01-09,40.0
1915-01-10,40.0
1915-01-11,40.0
1915-01-12,40.0
1915-01-13,40.0
1915-01-14,40.0
1915-01-15,40.0
1915-01-16,40.0
1915-01-17,40.0
1915-01-18,40.0
1915-01-19,40.0
1915-01-20,40.0
1915-01-21,40.0
1915-01-22,40.0
1915-01-23,40.0
1915-01-24,40.0
1915-01-25,40.0
1915-01-26,40.0
1915-01-27,40.0
1915-01-28,40.0
1915-01-29,40.0
1915-01-30,40.0
1915-01-31,40.0
1915-02-01,45.0
1915-02-02,45.0
1915-02-03,45.0
1915-02-04,45.0
1915-02-05,45.0
1915-02-06,45.0
1915-02-07,45.0
1915-02-08,45.0
1915-02-09,45.0
1915-02-10,45.0
1915-02-11,45.0
1915-02-12,45.0
1915-02-13,45.0
1915-02-14,45.0
1915-02-15,45.0
1915-02-16,45.0
1915-02-17,45.0
1915-02-18,45.0
1915-02-19,45.0
1915-02-20,45.0
1915-02-21,45.0
1915-02-22,45.0
1915-02-23,45.0
1915-02-24,45.0
1915-02-25,45.0
1915-02-26,45.0
1915-02-27,45.0
1915-02-28,45.0
1915-03-01,90.0
1915-03-02,90.0
1915-03-03,90.0
1915-03-04,90.0
1915-03-05,90.0
1915-03-06,90.0
1915-03-07,90.0
1915-03-08,90.0
1915-03-09,90.0
1915-03-10,90.0
1915-03-11,90.0
1915-03-12,90.0
1915-03-13,90.0
1915-03-14,90.0
1915-03-15,90.0
1915-03-16,90.0
1915-03-17,90.0
1915-03-18,90.0
1915-03-19,90.0
1915-03-20,90.0
1915-03-21,90.0
1915-03-22,90.0
1915-03-23,90.0
1915-03-24,90.0
1915-03-25,90.0
1915-03-26,90.0
1915-03-27,90.0
1915-03-28,90.0
1915-03-29,90.0
1915-03-30,90.0
1915-03-31,90.0
1915-04-01,106.0
1915-04-02,129.0
1915-04-03,164.0
1915-04-04,174.0
1915-04-05,213.0
1915-04-06,188.0
1915-04-07,293.0
1915-04-08,199.0
1915-04-09,249.0
1915-04-10,181.0
1915-04-11,188.0
1915-04-12,235.0
1915-04-13,257.0
1915-04-14,257.0
1915-04-15,293.0
1915-04-16,237.0
1915-04-17,210.0
1915-04-18,249.0
1915-04-19,327.0
1915-04-20,343.0
1915-04-21,381.0
1915-04-22,381.0
1915-04-23,364.0
1915-04-24,381.0
1915-04-25,398.0
1915-04-26,353.0
1915-04-27,423.0
1915-04-28,532.0
1915-04-29,625.0
1915-04-30,693.0
1915-05-01,510.0
1915-05-02,381.0
1915-05-03,343.0
1915-05-04,312.0
1915-05-05,302.0
1915-05-06,302.0
1915-05-07,266.0
1915-05-08,257.0
1915-05-09,266.0
1915-05-10,293.0
1915-05-11,364.0
1915-05-12,563.0
1915-05-13,804.0
1915-05-14,886.0
1915-05-15,642.0
1915-05-16,757.0
1915-05-17,757.0
1915-05-18,710.0
1915-05-19,511.0
1915-05-20,409.0
1915-05-21,422.0
1915-05-22,381.0
1915-05-23,398.0
1915-05-24,441.0
1915-05-25,532.0
1915-05-26,511.0
1915-05-27,409.0
1915-05-28,353.0
1915-05-29,422.0
1915-05-30,409.0
1915-05-31,441.0
1915-06-01,609.0
1915-06-02,785.0
1915-06-03,693.0
1915-06-04,547.0
1915-06-05,510.0
1915-06-06,547.0
1915-06-07,488.0
1915-06-08,532.0
1915-06-09,625.0
1915-06-10,824.0
1915-06-11,1110.0
1915-06-12,1110.0
1915-06-13,757.0
1915-06-14,586.0
1915-06-15,710.0
1915-06-16,668.0
1915-06-17,1020.0
1915-06-18,1020.0
1915-06-19,1190.0
1915-06-20,1070.0
1915-06-21,1130.0
1915-06-22,1260.0
1915-06-23,1230.0
1915-06-24,1200.0
1915-06-25,1240.0
1915-06-26,1550.0
1915-06-27,1520.0
1915-06-28,1480.0
1915-06-29,1450.0
1915-06-30,1440.0
1915-07-01,1400.0
1915-07-02,890.0
1915-07-03,860.0
1915-07-04,840.0
1915-07-05,1020.0
1915-07-06,1040.0
1915-07-07,810.0
1915-07-08,731.0
1915-07-09,643.0
1915-07-10,687.0
1915-07-11,731.0
1915-07-12,781.0
1915-07-13,687.0
1915-07-14,661.0
1915-07-15,722.0
1915-07-16,603.0
1915-07-17,500.0
1915-07-18,458.0
1915-07-19,423.0
1915-07-20,377.0
1915-07-21,377.0
1915-07-22,355.0
1915-07-23,323.0
1915-07-24,323.0
1915-07-25,458.0
1915-07-26,458.0
1915-07-27,507.0
1915-07-28,458.0
1915-07-29,377.0
1915-07-30,355.0
1915-07-31,313.0
1915-08-01,304.0
1915-08-02,277.0
1915-08-03,227.0
1915-08-04,208.0
1915-08-05,173.0
1915-08-06,163.0
1915-08-07,260.0
1915-08-08,365.0
1915-08-09,247.0
1915-08-10,220.0
1915-08-11,208.0
1915-08-12,183.0
1915-08-13,156.0
1915-08-14,156.0
1915-08-15,151.0
1915-08-16,134.0
1915-08-17,124.0
1915-08-18,101.0
1915-08-19,96.0
1915-08-20,87.0
1915-08-21,76.0
1915-08-22,73.0
1915-08-23,73.0
1915-08-24,70.0
1915-08-25,70.0
1915-08-26,73.0
1915-08-27,73.0
1915-08-28,73.0
1915-08-29,67.0
1915-08-30,67.0
1915-08-31,63.0
1915-09-01,60.0
1915-09-02,60.0
1915-09-03,58.0
1915-09-04,56.0
1915-09-05,60.0
1915-09-06,58.0
1915-09-07,58.0
1915-09-08,60.0
1915-09-09,60.0
1915-09-10,63.0
1915-09-11,60.0
1915-09-12,60.0
1915-09-13,60.0
1915-09-14,63.0
1915-09-15,66.0
1915-09-16,66.0
1915-09-17,70.0
1915-09-18,66.0
1915-09-19,73.0
1915-09-20,70.0
1915-09-21,66.0
1915-09-22,63.0
1915-09-23,60.0
1915-09-24,60.0
1915-09-25,208.0
1915-09-26,163.0
1915-09-27,124.0
1915-09-28,105.0
1915-09-29,105.0
1915-09-30,124.0
1915-10-01,105.0
1915-10-02,90.0
1915-10-03,90.0
1915-10-04,96.0
1915-10-05,90.0
1915-10-06,90.0
1915-10-07,90.0
1915-10-08,84.0
1915-10-09,84.0
1915-10-10,84.0
1915-10-11,84.0
1915-10-12,90.0
1915-10-13,84.0
1915-10-14,75.0
1915-10-15,66.0
1915-10-16,114.0
1915-10-17,90.0
1915-10-18,66.0
1915-10-19,66.0
1915-10-20,55.0
1915-10-21,55.0
1915-10-22,47.0
1915-10-23,55.0
1915-10-24,55.0
1915-10-25,55.0
1915-10-26,40.0
1915-10-27,40.0
1915-10-28,35.0
1915-10-29,35.0
1915-10-30,40.0
1915-10-31,40.0
1915-11-01,65.0
1915-11-02,65.0
1915-11-03,65.0
1915-11-04,65.0
1915-11-05,65.0
1915-11-06,65.0
1915-11-07,65.0
1915-11-08,65.0
1915-11-09,65.0
1915-11-10,65.0
1915-11-11,65.0
1915-11-12,65.0
1915-11-13,65.0
1915-11-14,65.0
1915-11-15,65.0
1915-11-16,65.0
1915-11-17,65.0
1915-11-18,65.0
1915-11-19,65.0
1915-11-20,65.0
1915-11-21,65.0
1915-11-22,65.0
1915-11-23,65.0
1915-11-24,65.0
1915-11-25,65.0
1915-11-26,65.0
1915-11-27,65.0
1915-11-28,65.0
1915-11-29,65.0
1915-11-30,65.0
1915-12-01,60.0
1915-12-02,60.0
1915-12-03,60.0
1915-12-04,60.0
1915-12-05,60.0
1915-12-06,60.0
1915-12-07,60.0
1915-12-08,60.0
1915-12-09,60.0
1915-12-10,60.0
1915-12-11,60.0
1915-12-12,60.0
1915-12-13,60.0
1915-12-14,60.0
1915-12-15,60.0
1915-12-16,60.0
1915-12-17,60.0
1915-12-18,60.0
1915-12-19,60.0
1915-12-20,60.0
1915-12-21,60.0
1915-12-22,60.0
1915-12-23,60.0
1915-12-24,60.0
1915-12-25,60.0
1915-12-26,60.0
1915-12-27,60.0
1915-12-28,60.0
1915-12-29,60.0
1915-12-30,60.0
1915-12-31,60.0
1916-01-01,60.0
1916-01-02,60.0
1916-01-03,60.0
1916-01-04,60.0
1916-01-05,60.0
1916-01-06,60.0
1916-01-07,60.0
1916-01-08,60.0
1916-01-09,60.0
1916-01-10,60.0
1916-01-11,60.0
1916-01-12,60.0
1916-01-13,60.0
1916-01-14,60.0
1916-01-15,60.0
1916-01-16,60.0
1916-01-17,60.0
1916-01-18,60.0
1916-01-19,60.0
1916-01-20,60.0
1916-01-21,60.0
1916-01-22,60.0
1916-01-23,60.0
1916-01-24,60.0
1916-01-25,60.0
1916-01-26,60.0
1916-01-27,60.0
1916-01-28,60.0
1916-01-29,60.0
1916-01-30,60.0
1916-01-31,60.0
1916-02-01,65.0
1916-02-02,65.0
1916-02-03,65.0
1916-02-04,65.0
1916-02-05,65.0
1916-02-06,65.0
1916-02-07,65.0
1916-02-08,65.0
1916-02-09,65.0
1916-02-10,65.0
1916-02-11,65.0
1916-02-12,65.0
1916-02-13,65.0
1916-02-14,65.0
1916-02-15,65.0
1916-02-16,65.0
1916-02-17,65.0
1916-02-18,65.0
1916-02-19,65.0
1916-02-20,65.0
1916-02-21,65.0
1916-02-22,65.0
1916-02-23,65.0
1916-02-24,65.0
1916-02-25,65.0
1916-02-26,65.0
1916-02-27,65.0
1916-02-28,65.0
1916-02-29,65.0
1916-03-01,100.0
1916-03-02,100.0
1916-03-03,100.0
1916-03-04,100.0
1916-03-05,100.0
1916-03-06,100.0
1916-03-07,100.0
1916-03-08,100.0
1916-03-09,100.0
1916-03-10,100.0
1916-03-11,100.0
1916-03-12,100.0
1916-03-13,100.0
1916-03-14,100.0
1916-03-15,100.0
1916-03-16,100.0
1916-03-17,100.0
1916-03-18,100.0
1916-03-19,100.0
1916-03-20,100.0
1916-03-21,100.0
1916-03-22,100.0
1916-03-23,100.0
1916-03-24,100.0
1916-03-25,100.0
1916-03-26,100.0
1916-03-27,100.0
1916-03-28,100.0
1916-03-29,100.0
1916-03-30,100.0
1916-03-31,100.0
1916-04-01,275.0
1916-04-02,275.0
1916-04-03,275.0
1916-04-04,275.0
1916-04-05,275.0
1916-04-06,275.0
1916-04-07,275.0
1916-04-08,275.0
1916-04-09,275.0
1916-04-10,275.0
1916-04-11,275.0
1916-04-12,275.0
1916-04-13,275.0
1916-04-14,275.0
1916-04-15,275.0
1916-04-16,275.0
1916-04-17,275.0
1916-04-18,275.0
1916-04-19,275.0
1916-04-20,275.0
1916-04-21,275.0
1916-04-22,275.0
1916-04-23,275.0
1916-04-24,275.0
1916-04-25,275.0
1916-04-26,275.0
1916-04-27,275.0
1916-04-28,275.0
1916-04-29,275.0
1916-04-30,275.0
1916-05-01,365.0
1916-05-02,310.0
1916-05-03,255.0
1916-05-04,260.0
1916-05-05,270.0
1916-05-06,365.0
1916-05-07,520.0
1916-05-08,750.0
1916-05-09,780.0
1916-05-10,930.0
1916-05-11,920.0
1916-05-12,825.0
1916-05-13,800.0
1916-05-14,480.0
1916-05-15,395.0
1916-05-16,260.0
1916-05-17,230.0
1916-05-18,200.0
1916-05-19,190.0
1916-05-20,310.0
1916-05-21,295.0
1916-05-22,300.0
1916-05-23,260.0
1916-05-24,240.0
1916-05-25,295.0
1916-05-26,260.0
1916-05-27,270.0
1916-05-28,290.0
1916-05-29,320.0
1916-05-30,435.0
1916-05-31,570.0
1916-06-01,620.0
1916-06-02,640.0
1916-06-03,750.0
1916-06-04,930.0
1916-06-05,820.0
1916-06-06,810.0
1916-06-07,930.0
1916-06-08,980.0
1916-06-09,1110.0
1916-06-10,1110.0
1916-06-11,1260.0
1916-06-12,1260.0
1916-06-13,1300.0
1916-06-14,1360.0
1916-06-15,1190.0
1916-06-16,1130.0
1916-06-17,990.0
1916-06-18,1010.0
1916-06-19,1070.0
1916-06-20,1080.0
1916-06-21,950.0
1916-06-22,878.0
1916-06-23,810.0
1916-06-24,810.0
1916-06-25,805.0
1916-06-26,780.0
1916-06-27,810.0
1916-06-28,790.0
1916-06-29,820.0
1916-06-30,810.0
1916-07-01,770.0
1916-07-02,705.0
1916-07-03,645.0
1916-07-04,665.0
1916-07-05,610.0
1916-07-06,520.0
1916-07-07,420.0
1916-07-08,400.0
1916-07-09,955.0
1916-07-10,915.0
1916-07-11,670.0
1916-07-12,530.0
1916-07-13,465.0
1916-07-14,375.0
1916-07-15,595.0
1916-07-16,585.0
1916-07-17,520.0
1916-07-18,480.0
1916-07-19,430.0
1916-07-20,410.0
1916-07-21,395.0
1916-07-22,385.0
1916-07-23,390.0
1916-07-24,370.0
1916-07-25,415.0
1916-07-26,505.0
1916-07-27,610.0
1916-07-28,640.0
1916-07-29,515.0
1916-07-30,810.0
1916-07-31,700.0
1916-08-01,580.0
1916-08-02,350.0
1916-08-03,765.0
1916-08-04,1070.0
1916-08-05,655.0
1916-08-06,1200.0
1916-08-07,910.0
1916-08-08,720.0
1916-08-09,655.0
1916-08-10,580.0
1916-08-11,500.0
1916-08-12,530.0
1916-08-13,745.0
1916-08-14,740.0
1916-08-15,770.0
1916-08-16,655.0
1916-08-17,500.0
1916-08-18,450.0
1916-08-19,399.0
1916-08-20,370.0
1916-08-21,330.0
1916-08-22,330.0
1916-08-23,270.0
1916-08-24,252.0
1916-08-25,240.0
1916-08-26,231.0
1916-08-27,216.0
1916-08-28,194.0
1916-08-29,188.0
1916-08-30,310.0
1916-08-31,225.0
1916-09-01,188.0
1916-09-02,174.0
1916-09-03,166.0
1916-09-04,160.0
1916-09-05,142.0
1916-09-06,147.0
1916-09-07,134.0
1916-09-08,134.0